Home   Weather   Kfar Saba   Past weeks

Flag for Israel Past Weather in Kfar Saba, Israel — Yesterday and Last 2 Weeks

Now
68 °F

Sunny.


Feels Like: 68 °F
Forecast: 56 / 80 °F
Wind: 7 mph from West

Location: Dov Airport

Current Time: Apr 29, 2017 at 10:40:34 am

Latest Report: Apr 29, 2017 at 9:50 am


Visibility: 10 mi

Pressure: 29.95 "Hg

Humidity: 73%

Dew Point: 59 °F

Location of Kfar SabaLocation

Past Weather in Kfar Saba — Graph

°F

Kfar Saba Temperature Yesterday

Maximum temperature yesterday: 72 °F (at 11:50 am)
Minimum temperature yesterday: 61 °F (at 5:00 am)
Average temperature yesterday: 68 °F

High & Low Weather Summary for the Past Weeks

 TemperatureHumidityPressure
High88 °F (Apr 22, 2:50 pm)88% (Apr 17, 6:00 am)30.12 "Hg (Apr 17, 6:00 am)
Low57 °F (Apr 17, 6:00 am)22% (Apr 22, 10:50 am)29.65 "Hg (Apr 22, 4:50 pm)
Average68 °F65%29.99 "Hg
* Reported Apr 14 8:50 am — Apr 29 8:50 am, Kfar Saba, Weather by CustomWeather, © 2017

Note: Actual official high and low records may vary slightly from our data, if they occured in-between our weather recording intervals... More about our weather records

Advertising

Kfar Saba Weather History for the Previous 24 Hours

Scroll right to see more
 ConditionsComfort  
Time TempWeatherWind HumidityBarometerVisibility
8:50 am
Sat, Apr 29
68 °FSunny.2 mph69%29.95 "Hg10 mi
7:50 am64 °FSunny.5 mph68%29.95 "Hg10 mi
6:50 am61 °FSunny.3 mph77%29.92 "Hg10 mi
6:00 am59 °FSunny.5 mph82%29.92 "Hg10 mi
9:50 pm
Fri, Apr 28
64 °FClear.2 mph83%29.95 "Hg10 mi
8:50 pm66 °FClear.1 mph83%29.95 "Hg10 mi
7:50 pm66 °FClear.3 mph83%29.95 "Hg10 mi
6:50 pm68 °FPassing clouds.7 mph78%29.95 "HgN/A
5:50 pm70 °FPassing clouds.7 mph73%29.92 "HgN/A
4:50 pm70 °FSunny.9 mph73%29.92 "Hg10 mi
3:50 pm72 °FSunny.10 mph69%29.92 "Hg10 mi
2:50 pm72 °FSunny.9 mph69%29.95 "Hg10 mi
1:50 pm72 °FSunny.10 mph65%29.95 "Hg10 mi
12:50 pm70 °FSunny.10 mph69%29.98 "Hg10 mi
11:50 am72 °FSunny.10 mph65%29.98 "Hg10 mi
10:50 am70 °FSunny.12 mph69%29.98 "Hg10 mi
Weather by CustomWeather, © 2017

See weather overviewHow to use our weather pages